www.pogodaiklimat.ru

АРХИВ ПОГОДЫ в Ростове-на-Дону

Время (UTC), дата Ветер
(напр.,м/с)
 
Видим.   Явления Облачность Т
(С)
Тd
(С)
f
(%)
Тe
(С)
Тes
(С)
Комфортность P
(гПа)
Po
(гПа)
Тmin
(С)
Tmax
(С)
R
(мм)
S
(см)
21 18.05 ЮЗ 3 8000 м 5/0
[Ac trans]
+12.5 +5.9 64 +11 +11 прохладно 1014.6 1005.6
00 19.05 З 2 8000 м 3/0
[Ac trans]
+12.4 +3.5 55 +12 +12 по сезону 1014.7 1005.7
03 19.05 З 3 10 км 4/0
[Ac trans]
+12.4 +1.3 47 +11 +12 прохладно 1015.5 1006.5 +11.5
06 19.05 СЗ 5 10 км 4/0
[Ci fib]
+16.7 +1.1 35 +16 +21 по сезону 1015.9 1007.0
09 19.05 З 5-10
{11}
10 км 6/5 1200 м
[Cu hum Ac trans]
+18.7 +1.1 31 +19 +23 по сезону 1015.7 1006.9
12 19.05 СЗ 5
{12}
10 км 6/5 1200 м
[Cu hum Ac trans]
+19.8 +1.8 30 +20 +23 прохладно 1016.0 1007.2
15 19.05 СЗ 4 10 км 3/1 1000 м
[Cu hum Ac trans]
+19.8 +0.5 27 +20 +21 по сезону 1016.3 1007.5 +20.7
18 19.05 З 1
{10}
8000 м 1/0
[Ac trans]
+14.7 +2.8 45 +15 +15 по сезону 1017.7 1008.8
21 19.05 СЗ 1 8000 м ясно +12.3 +8.6 78 +12 +12 прохладно 1018.6 1009.6
00 20.05 штиль 0 5000 м дым 1/0
[Ac trans]
+10.6 +9.1 90 +10 +10 прохладно 1018.8 1009.7
03 20.05 З 2 10 км ясно +12.5 +8.7 78 +12 +13 прохладно 1019.2 1010.2 +9.9
06 20.05 ЮЗ 3 10 км ясно +19.8 +9.2 50 +21 +29 комфорт 1019.6 1010.8
09 20.05 С 2 10 км 3/3 1000 м
[Cu hum]
+22.8 +8.0 39 +24 +36 комфорт 1019.0 1010.3
12 20.05 С 3 10 км 3/3 1000 м
[Cu hum]
+24.0 +5.8 31 +24 +31 комфорт 1018.2 1009.6
15 20.05 СВ 4 10 км ясно +23.5 +5.5 31 +23 +25 комфорт 1018.0 1009.3 +24.7
18 20.05 В 2 8000 м ясно +17.3 +5.2 45 +18 +18 по сезону 1019.0 1010.1
21 20.05 В 4 8000 м ясно +14.1 +4.5 52 +13 +13 по сезону 1019.2 1010.2
00 21.05 В 4 8000 м ясно +13.5 +5.3 58 +12 +12 по сезону 1019.8 1010.8
03 21.05 В 4 10 км ясно +14.1 +5.7 57 +13 +13 прохладно 1020.3 1011.3 +10.9
06 21.05 В 7 10 км 1/0
[Ac trans]
+18.7 +8.0 50 +18 +21 по сезону 1020.3 1011.5
09 21.05 В 8-13
{13}
10 км ясно +22.2 +6.7 37 +23 +26 комфорт 1019.6 1010.9
12 21.05 В 8-11
{13}
10 км ясно +23.7 +7.9 36 +24 +26 комфорт 1018.6 1009.9
15 21.05 В 7 10 км ясно +22.7 +5.5 33 +23 +24 комфорт 1017.9 1009.2 +24.0
18 21.05 СВ 5 8000 м ясно +17.3 +7.4 52 +17 +17 по сезону 1018.6 1009.8
21 21.05 В 6 8000 м ясно +17.4 +6.6 49 +17 +17 тепло 1018.5 1009.7
00 22.05 В 5 8000 м ясно +15.2 +7.1 58 +14 +14 по сезону 1018.6 1009.7
03 22.05 В 5 10 км 3/0
[Ci fib]
+14.9 +7.1 60 +14 +14 по сезону 1019.1 1010.2 +14.2
06 22.05 В 6 10 км 3/0
[Ci fib]
+20.7 +8.9 47 +22 +26 комфорт 1019.4 1010.7
09 22.05 В 10-15
{15}
10 км 1/0
[Ci fib]
+25.2 +5.0 27 +25 +25 комфорт 1018.8 1010.2
12 22.05 В 9-13
{15}
10 км 1/0
[Ci fib]
+26.6 +5.6 26 +26 +27 жарко 1018.0 1009.4
15 22.05 В 7
{13}
10 км 3/0
[Ci fib]
+25.8 +6.8 30 +26 +26 жарко 1017.3 1008.7 +27.0
18 22.05 В 4
{13}
8000 м 1/0
[Ci fib]
+19.7 +7.9 46 +21 +21 комфорт 1017.8 1009.0
21 22.05 В 4 8000 м ясно +18.0 +7.8 51 +18 +18 тепло 1017.7 1008.9
00 23.05 В 4 8000 м ясно +14.5 +6.8 60 +13 +13 по сезону 1018.0 1009.1
03 23.05 В 5 10 км 5/0
[Ci fib]
+15.6 +7.2 57 +14 +15 по сезону 1018.4 1009.5 +12.9
06 23.05 В 7 10 км 3/0
[Ci fib]
+20.7 +7.6 43 +22 +24 комфорт 1017.8 1009.1
09 23.05 В 10-13
{14}
10 км 8/0
[Ci fib]
+24.9 +6.9 32 +25 +26 комфорт 1016.6 1008.0
12 23.05 В 8-15
{15}
10 км 8/0
[Ci fib]
+26.7 +6.5 28 +26 +28 жарко 1015.2 1006.7
15 23.05 В 7-10
{15}
10 км 8/0
[Ci fib]
+26.1 +6.8 29 +26 +26 жарко 1014.5 1006.0 +26.9
18 23.05 В 5
{15}
8000 м 6/0
[Ac trans Ci fib]
+21.2 +7.3 41 +22 +22 комфорт 1014.6 1005.9
21 23.05 В 4 8000 м ясно +16.8 +7.6 55 +16 +16 по сезону 1015.1 1006.3
00 24.05 В 4 8000 м ясно +14.7 +5.3 53 +14 +14 по сезону 1014.9 1006.0
03 24.05 В 6 10 км 4/0
[Ac trans Ci fib]
+14.6 +5.0 53 +13 +13 прохладно 1015.0 1006.1 +13.1
06 24.05 В 6
{10}
10 км 4/0
[Ac trans Ci fib]
+20.3 +8.1 45 +21 +24 комфорт 1014.3 1005.6
09 24.05 В 8-12
{13}
10 км 5/0
[Ac trans]
+24.7 +7.3 33 +25 +27 комфорт 1013.6 1005.0
12 24.05 В 9-12
{13}
10 км 3/0
[Ac trans]
+27.6 +6.9 27 +27 +28 жарко 1011.4 1002.9
15 24.05 В 5
{10}
10 км 3/0
[Ac trans]
+27.1 +8.9 32 +27 +28 жарко 1010.4 1001.9 +28.1
18 24.05 ЮЗ 1
{10}
8000 м 5/0
[Ci fib]
+22.3 +11.0 49 +24 +24 комфорт 1010.6 1002.0
21 24.05 СВ 3 8000 м ясно +17.4 +12.0 71 +17 +17 по сезону 1010.8 1002.0
00 25.05 В 5 8000 м ясно +15.2 +10.0 71 +14 +14 по сезону 1010.6 1001.8
03 25.05 В 5 10 км ясно +15.3 +8.4 63 +14 +15 прохладно 1011.1 1002.3 +14.3
06 25.05 В 5 10 км 1/0
[Ac trans]
+20.0 +10.0 53 +21 +26 комфорт 1012.0 1003.3
09 25.05 В 6 10 км 3/0
[Ac trans]
+23.6 +12.5 50 +26 +31 жарко 1011.8 1003.2
12 25.05 ЮВ 5
{10}
10 км ясно +26.5 +11.7 40 +28 +34 жарко 1010.5 1002.0
15 25.05 В 3
{10}
10 км ясно +26.4 +11.3 39 +28 +30 жарко 1009.4 1000.9 +27.0
18 25.05 В 4
{10}
10 км 6/0
[Ac trans]
+22.3 +13.9 59 +25 +25 комфорт 1009.6 1001.0

 

Местоположение метеостанции Ростов-на-Дону (Ростовская область, Россия): широта 47.27 долгота 39.82 высота над уровнем моря 75 м.

В архиве по умолчанию представлена погода в Ростове-на-Дону за последнюю неделю. Архивные данные за месяц целиком и за предыдущие месяцы, начиная с января 2011 года, Вы можете получить, выбрав интересующий диапазон дат из раскрывающегося списка и нажав кнопку "Ввод!".

Внимание! Время в таблицах - всемирное. Для получения местного времени необходимо прибавить поправку, которая в Ростове-на-Дону равна 3 ч.

Ветер - указаны скорость ветра в м/с - средняя за 10 мин, порывы в срок и между сроками (в фигурных скобках) и направление, откуда дует ветер: С - северный, СВ - северо-восточный, В - восточный, ЮВ - юго-восточный, Ю - южный, ЮЗ - юго-западный, З - западный, СЗ - северо-западный.
Видимость - горизонтальная дальность видимости в метрах или километрах. При видимости от 1 до 10 км при отсутствии осадков обычно наблюдается дымка, при ухудшении видимости до 1 км и менее - туман. В сухую погоду видимость может ухудшаться дымом, пылью или мглою.
Явления - указаны атмосферные явления, наблюдавшиеся в срок или в последний час перед сроком; фигурными скобками обозначены явления, наблюдавшиеся между сроками (за 1-3 часа до срока); квадратными скобками обозначены град или гололедные отложения с указанием их диаметра в мм.
Облачность - указаны через наклонную черту общая и нижняя облачность в баллах и высота нижней границы облаков в метрах; квадратными скобками обозначены формы облаков: Ci - перистые, Cs - перисто-слоистые, Cc - перисто-кучевые, Ac - высококучевые, As - высокослоистые, Sc - слоисто-кучевые, Ns - слоисто-дождевые, Cu - кучевые, Cb - кучево-дождевые. Подробнее классификацию облаков см. в Атласе облаков (PDF).
T - Температура воздуха - температура, измеренная на высоте 2 м над землей.
Td - Температура точки росы - температура, при понижении до которой содержащийся в воздухе водяной пар достигнет насыщения.
f - Относительная влажность воздуха - влажноcть воздуха, измеренная на высоте 2 м над землей.
Te - Эффективная температура - температура, которую ощущает одетый по сезону человек в тени. Характеристика душности погоды. При расчете учитывается влияние влажности воздуха и скорости ветра на теплоощущения человека.
Tes - Эффективная температура на солнце - температура, которую ощущает человек, с поправкой на солнечный нагрев. Характеристика знойности погоды. Зависит от высоты солнца над горизонтом, облачности и скорости ветра. Ночью, в пасмурную погоду, а также при ветре 12 м/с и более поправка равна нулю.
P - Атмосферное давление - приведенное к уровню моря атмосферное давление.
Po - Атмосферное давление - измеренное на уровне метеостанции атмосферное давление.
Tmin - Минимальная температура - минимум температуры воздуха на высоте 2 м над землей.
Tmax - Максимальная температура - максимум температуры воздуха на высоте 2 м над землей.
R - Количество осадков - Количество выпавших осадков, мм. При наведении курсора мыши на число - период времени, за который выпало указанное количество осадков.
S - Снежный покров - Высота снежного покрова, см. При наведении курсора мыши на число - состояние снежного покрова и степень покрытия местности в баллах.